[[{"header":{"parameterUnit":"m.s-1","parameterCategory":2,"la1":30.2991,"la2":30.254,"lo1":-89.0895,"lo2":-89.0444,"dx":0.0017,"dy":0.0017,"nx":28,"ny":28,"refTime":"2022-11-15T15:00:00:Z","depth":"0","parameterNumber":2,"parameterNumberName":"U-component_of_CURRENTS"},"data":[0,0,0,0,0,0,0,0,0,0,0,0,0,0,0,0,0,0,0,0,0,0,0,0,0,0,0,0,0,0,0,0,0,0,0,0,0,0,0,0,0,0,0,0,0,0,0,0,0,0,0,0,0,0,0,0,0,0,0.3593,0.3594,0,0.361,0.361,0.361,0.3586,0.3585,0.3585,0.3584,0.3555,0.3555,0.3555,0,0,0,0,0,0,0,0,0,0,0,0,0,0.3544,0.3545,0.3593,0.3594,0.3594,0.361,0.361,0.361,0.3586,0.3585,0.3585,0.3584,0.3555,0.3555,0.3555,0,0,0,0,0,0,0,0,0,0,0,0,0,0.356,0.3545,0.3593,0.3587,0.3586,0.361,0.361,0.361,0.3586,0.3585,0.3584,0.3584,0.3555,0.3555,0.3555,0.3569,0,0,0.3553,0.3553,0,0,0,0,0,0,0,0,0.356,0.3562,0.3587,0.3587,0.3587,0.3598,0.3583,0.3595,0.3586,0.3583,0.3584,0.3583,0.3568,0.3567,0.3567,0.3567,0.3566,0.3553,0.3553,0.3553,0.3553,0,0,0,0,0,0,0,0.3558,0.3561,0.3596,0.3588,0.3588,0.3585,0.3586,0.3585,0.3576,0.3583,0.3582,0.359,0.3567,0.3568,0.3567,0.3566,0.3553,0.3553,0.3553,0.3553,0.3614,0.3615,0,0,0,0,0,0,0.3564,0.356,0.3596,0.3597,0.3575,0.3587,0.3588,0.3593,0.3577,0.3575,0.359,0.3589,0.3569,0.3567,0.3565,0.3608,0.3553,0.3553,0.3552,0.3612,0.3614,0.3616,0,0,0,0,0,0,0.3563,0.3567,0.3595,0.3582,0.3586,0.3589,0.3594,0.3593,0.36,0.3584,0.358,0.3599,0.3568,0.3566,0.3578,0.3606,0.3553,0.3552,0.361,0.3613,0.3615,0.3676,0,0,0,0,0,0,0.3561,0.3566,0.3576,0.3582,0.3587,0.3618,0.3596,0.3594,0.3608,0.3605,0.3591,0.3587,0.3567,0.3579,0.3578,0.3604,0.3552,0.3607,0.3611,0.3614,0.3672,0.3681,0.3689,0,0,0,0,0,0.356,0.3572,0.3576,0.3581,0.3598,0.362,0.3622,0.3618,0.3609,0.3619,0.3612,0.3587,0.36,0.358,0.3578,0.3605,0.3606,0.361,0.3614,0.3668,0.3679,0.3688,0,0,0,0,0,0,0.3551,0.3571,0.3575,0.3592,0.3612,0.3617,0.3626,0.3628,0.3631,0.3628,0.3606,0.3603,0.363,0.3612,0.3591,0.3636,0.3601,0.3605,0.3643,0.3653,0.3661,0.3691,0.3552,0,0,0,0,0,0.3558,0.3572,0.3592,0.3607,0.3617,0.3625,0.3635,0.3639,0.3643,0.3643,0.3634,0.3632,0.3647,0.3644,0.3651,0.3668,0.3679,0.3687,0.3696,0.3703,0.3728,0.3766,0.378,0.363,0.363,0.363,0,0,0.3556,0.3572,0.3579,0.3608,0.3617,0.3643,0.3628,0.365,0.3677,0.3641,0.3665,0.3664,0.3661,0.3687,0.3697,0.3672,0.3753,0.3708,0.3714,0.3736,0.3772,0.3786,0.3799,0.3633,0.3632,0.3632,0,0,0.3564,0.3579,0.3594,0.3618,0.3648,0.366,0.3671,0.3688,0.37,0.3725,0.3718,0.3739,0.3735,0.3753,0.3759,0.3819,0.3803,0.3814,0.3869,0.3905,0.3918,0.3929,0.3966,0.398,0.3809,0.3809,0.3809,0,0.3567,0.3589,0.3603,0.3631,0.3655,0.3671,0.3699,0.3723,0.3744,0.3765,0.3739,0.3781,0.3775,0.3831,0.3854,0.384,0.3855,0.3826,0.3916,0.3928,0.3938,0.3973,0.3988,0.3812,0.3812,0.3812,0.3811,0,0.3589,0.3612,0.3625,0.3666,0.3695,0.3723,0.3763,0.3794,0.3804,0.3824,0.3877,0.3877,0.3903,0.3906,0.3896,0.3976,0.3961,0.3928,0.3889,0.3957,0.3989,0.4004,0.3817,0.3816,0.3815,0.3814,0,0,0.3574,0.363,0.3633,0.3657,0.3719,0.3739,0.3805,0.3862,0.3902,0.3926,0.3979,0.4015,0.4018,0.4029,0.4026,0.4058,0.4143,0.4028,0.4028,0.4063,0.423,0.4227,0.4241,0.4118,0.412,0.4123,0.4223,0,0.3586,0.3631,0.3667,0.3715,0.374,0.3794,0.3849,0.3908,0.3949,0.4004,0.4039,0.4079,0.4064,0.4076,0.4117,0.4145,0.4183,0.412,0.4162,0.4164,0.4151,0.4259,0.4187,0.4272,0.4237,0.4239,0.4241,0,0.3592,0.3624,0.367,0.3736,0.3753,0.3792,0.3883,0.3938,0.4035,0.4062,0.4126,0.4153,0.4241,0.4192,0.4296,0.4255,0.4261,0.4267,0.427,0.4261,0.4189,0.4199,0.4299,0.4255,0.4262,0.4261,0.4259,0,0.3555,0.3621,0.3655,0.3681,0.3764,0.3803,0.3854,0.3951,0.4017,0.4109,0.4171,0.4245,0.4313,0.4338,0.4388,0.4341,0.4487,0.4411,0.4417,0.4415,0.4363,0.4353,0.4426,0.4479,0.4479,0.4478,0.4478,0,0.3547,0.3571,0.3638,0.3657,0.3706,0.3777,0.3845,0.3912,0.4031,0.4111,0.4201,0.4291,0.4356,0.445,0.4439,0.4508,0.4534,0.4472,0.4459,0.4383,0.4374,0.4338,0.4308,0.4482,0.4481,0.448,0.448,0,0.3497,0.3542,0.3581,0.3662,0.3688,0.3723,0.3838,0.3887,0.402,0.414,0.4183,0.4368,0.4491,0.4558,0.4622,0.4601,0.4529,0.4629,0.4547,0.4523,0.4455,0.443,0.4265,0.4118,0.4649,0.465,0.4651,0,0.3474,0.349,0.3565,0.3579,0.3614,0.3674,0.3714,0.385,0.3922,0.4176,0.4237,0.4439,0.4552,0.4702,0.4702,0.4725,0.4565,0.4648,0.4544,0.4492,0.4454,0.4205,0.4072,0.4497,0.4497,0.4496,0.4496,0,0.3429,0.3457,0.3484,0.3516,0.355,0.3592,0.3676,0.3747,0.3919,0.4061,0.4254,0.4384,0.4595,0.4636,0.4718,0.4697,0.4471,0.4637,0.4604,0.4387,0.4099,0.3936,0.4391,0.4491,0.4491,0.4492,0.4492,0.4492,0.3384,0.3385,0.3415,0.3435,0.3465,0.3496,0.3496,0.3616,0.3741,0.3923,0.4144,0.4308,0.4534,0.4662,0.4614,0.4575,0.4435,0.4478,0.4468,0.4229,0.4039,0.4499,0.4564,0.4565,0.4566,0.4566,0.4567,0,0.3306,0.3311,0.3327,0.3332,0.331,0.3372,0.3443,0.3433,0.3514,0.3779,0.3932,0.4222,0.4342,0.4467,0.4586,0.4477,0.416,0.4356,0.4016,0.39,0.4371,0.4323,0.4314,0.4314,0.4314,0.4314,0.4314,0.4314,0.326,0.323,0.3235,0.3166,0.3166,0.3104,0.3112,0.3143,0.3294,0.3486,0.3675,0.388,0.4293,0.457,0.4568,0.4431,0.408,0.3903,0.38,0.4231,0.424,0.4248,0.4197,0.4162,0.4161,0.3151,0.3145,0.314]},{"header":{"parameterUnit":"m.s-1","parameterCategory":2,"la1":30.2991,"la2":30.254,"lo1":-89.0895,"lo2":-89.0444,"dx":0.0017,"dy":0.0017,"nx":28,"ny":28,"refTime":"2022-11-15T15:00:00:Z","depth":"0","parameterNumber":3,"parameterNumberName":"V-component_of_CURRENTS"},"data":[0,0,0,0,0,0,0,0,0,0,0,0,0,0,0,0,0,0,0,0,0,0,0,0,0,0,0,0,0,0,0,0,0,0,0,0,0,0,0,0,0,0,0,0,0,0,0,0,0,0,0,0,0,0,0,0,0,0,0.0112,0.0111,0,0.0051,0.0051,0.005,0.0005,0.0005,0.0005,0.0004,-0.0088,-0.0091,-0.0093,0,0,0,0,0,0,0,0,0,0,0,0,0,0.0109,0.0109,0.0112,0.0111,0.0111,0.0052,0.0051,0.005,0.0005,0.0005,0.0004,0.0004,-0.0088,-0.009,-0.0093,0,0,0,0,0,0,0,0,0,0,0,0,0,0.0084,0.011,0.0112,0.0083,0.0079,0.0052,0.0051,0.0049,0.0005,0.0005,0.0004,0.0004,-0.0087,-0.009,-0.0093,-0.0107,0,0,-0.0104,-0.0105,0,0,0,0,0,0,0,0,0.0086,0.0084,0.0087,0.0085,0.0081,0.0037,0.0015,-0.0004,0.0005,0.0032,0.0004,0.0004,-0.0048,-0.0055,-0.0067,-0.0111,-0.0115,-0.0104,-0.0106,-0.0107,-0.0108,0,0,0,0,0,0,0,0.0088,0.0086,0.0086,0.0087,0.0083,0.0045,0.0042,0.0011,-0.0007,0.0029,0.0026,0.0022,-0.0051,-0.0064,-0.007,-0.0116,-0.0104,-0.0107,-0.0109,-0.011,-0.0169,-0.0169,0,0,0,0,0,0,0.0103,0.0088,0.0088,0.0085,0.0084,0.0046,0.0042,0.005,-0.0006,-0.0015,0.0023,0.002,-0.0058,-0.0066,-0.0073,-0.0073,-0.0107,-0.0111,-0.0113,-0.017,-0.0169,-0.0168,0,0,0,0,0,0,0.0104,0.0104,0.0091,0.0085,0.0081,0.0047,0.0056,0.0049,0.0041,-0.0011,-0.002,0.0022,-0.0058,-0.0068,-0.0088,-0.0078,-0.0112,-0.0115,-0.017,-0.0169,-0.0169,-0.0086,0,0,0,0,0,0,0.0104,0.0105,0.0114,0.0087,0.0082,0.0088,0.0056,0.0048,0.0039,0.0036,-0.0015,-0.0024,-0.006,-0.0083,-0.0091,-0.0083,-0.0118,-0.0171,-0.017,-0.0169,-0.0089,-0.0083,-0.0077,0,0,0,0,0,0.0104,0.0127,0.0115,0.0115,0.0097,0.0089,0.0083,0.0055,0.004,0.0044,0.0011,-0.0022,-0.0084,-0.0085,-0.0095,-0.0088,-0.0171,-0.017,-0.0169,-0.0092,-0.0084,-0.0077,0,0,0,0,0,0,0.013,0.0124,0.011,0.013,0.0114,0.0082,0.0083,0.0064,0.004,0.0037,-0.0014,-0.0025,-0.0041,-0.0074,-0.0074,-0.0103,-0.0134,-0.0135,-0.0072,-0.0065,-0.0059,-0.0033,-0.0121,0,0,0,0,0,0.0141,0.0156,0.0138,0.0151,0.0148,0.0116,0.0108,0.0092,0.0068,0.0057,0.0021,-0.0017,-0.0046,-0.0061,-0.0094,-0.0106,-0.0145,-0.011,-0.0103,-0.0098,-0.0084,-0.0139,-0.0136,-0.0165,-0.0165,-0.0165,0,0,0.0152,0.0151,0.0158,0.0157,0.014,0.0151,0.011,0.0109,0.0118,0.0051,0.0048,0.0004,-0.0045,-0.0059,-0.0069,-0.0084,-0.011,-0.0097,-0.0091,-0.0081,-0.0137,-0.0135,-0.0132,-0.0164,-0.0165,-0.0165,0,0,0.0191,0.0184,0.0212,0.0205,0.0195,0.0179,0.0185,0.016,0.0149,0.0139,0.0093,0.0061,0.0015,-0.0015,-0.0037,-0.0016,-0.0075,-0.0031,0.0022,-0.0031,-0.0029,-0.0028,-0.0069,-0.0073,-0.0028,-0.0027,-0.0027,0,0.0203,0.0238,0.0216,0.0237,0.0243,0.02,0.0231,0.0213,0.0183,0.0181,0.015,0.0083,0.0037,0.0023,0.0028,-0.0001,-0.0039,-0.0001,-0.0022,-0.0022,-0.0022,-0.0065,-0.007,-0.0023,-0.0024,-0.0024,-0.0025,0,0.026,0.0285,0.03,0.0317,0.0319,0.0337,0.0316,0.0318,0.0293,0.0264,0.024,0.0173,0.0136,0.0109,0.0074,0.0056,0.0027,-0.0008,-0.0038,-0.0014,-0.0061,-0.0067,-0.0017,-0.0019,-0.002,-0.0021,0,0,0.0303,0.0336,0.0343,0.0373,0.0367,0.0383,0.0401,0.0406,0.0424,0.0365,0.0377,0.0303,0.0254,0.0226,0.0169,0.012,0.008,0.0063,0.0058,0.0029,-0.0032,-0.0059,-0.0069,0.0036,0.0036,0.0035,-0.0063,0,0.0357,0.0428,0.0425,0.049,0.0528,0.0504,0.0533,0.0526,0.0495,0.049,0.0409,0.0384,0.0302,0.0285,0.0223,0.0121,0.0067,0.011,-0.0056,-0.0061,-0.0083,-0.0076,-0.003,-0.0115,-0.0069,-0.007,-0.0071,0,0.0421,0.0464,0.0545,0.0604,0.0619,0.0649,0.0691,0.0704,0.0672,0.0643,0.0587,0.0515,0.0445,0.0367,0.0201,0.0231,0.0112,0.0021,0.0014,-0.0043,-0.01,-0.0134,-0.0128,-0.0377,-0.0081,-0.008,-0.008,0,0.0486,0.0552,0.0628,0.0643,0.0696,0.0737,0.0761,0.0754,0.0786,0.0733,0.0745,0.0622,0.0588,0.0418,0.0227,0.0211,0.0039,-0.001,-0.0148,-0.0151,-0.0159,-0.0162,-0.0405,-0.0131,-0.0131,-0.0131,-0.0131,0,0.0554,0.0614,0.067,0.0712,0.0816,0.0816,0.0906,0.09,0.0911,0.0968,0.0831,0.0851,0.0598,0.0472,0.027,0.0052,0.0066,-0.0132,-0.0178,-0.0129,-0.0128,-0.0382,-0.0531,-0.0135,-0.0134,-0.0133,-0.0132,0,0.0616,0.0647,0.0744,0.0821,0.0855,0.0927,0.1019,0.1074,0.1065,0.1139,0.1135,0.1022,0.0853,0.0595,0.0323,0.0131,-0.0235,-0.0178,-0.0098,-0.0133,-0.0497,-0.064,-0.0917,-0.1042,-0.0345,-0.0346,-0.0347,0,0.0653,0.0713,0.083,0.0898,0.094,0.1044,0.1123,0.1148,0.122,0.1262,0.1318,0.118,0.1127,0.071,0.0322,-0.0041,-0.0279,-0.0244,-0.0276,-0.051,-0.0706,-0.0796,-0.0888,-0.0254,-0.0254,-0.0255,-0.0255,0,0.073,0.0775,0.0856,0.1001,0.1101,0.1223,0.134,0.143,0.1486,0.1563,0.1636,0.1598,0.1206,0.0849,0.033,0.0076,-0.042,-0.026,-0.0528,-0.0675,-0.0765,-0.0907,-0.0198,-0.0256,-0.0256,-0.0256,-0.0256,-0.0256,0.0789,0.0861,0.0975,0.1115,0.1235,0.14,0.1528,0.1659,0.1818,0.1972,0.1906,0.1932,0.1384,0.0683,0.0256,-0.0451,-0.0474,-0.0638,-0.0797,-0.0869,-0.0988,-0.028,-0.0379,-0.038,-0.038,-0.0381,-0.0381,0,0.0861,0.0947,0.1079,0.1252,0.14,0.1454,0.1676,0.1824,0.2044,0.2194,0.2273,0.2076,0.1383,0.0674,-0.0302,-0.0856,-0.1055,-0.1163,-0.129,-0.1363,-0.0744,-0.0738,-0.0889,-0.0889,-0.0889,-0.0888,-0.0888,-0.0888,0.0901,0.1037,0.111,0.1366,0.1493,0.1721,0.1866,0.2086,0.2268,0.2495,0.257,0.2563,0.207,0.021,-0.107,-0.1386,-0.1781,-0.1865,-0.2104,-0.169,-0.1652,-0.1617,-0.1647,-0.1986,-0.1987,-0.261,-0.2617,-0.2622]}],[{"header":{"parameterUnit":"m.s-1","parameterCategory":2,"la1":30.2991,"la2":30.254,"lo1":-89.0895,"lo2":-89.0444,"dx":0.0017,"dy":0.0017,"nx":28,"ny":28,"refTime":"2022-11-15T15:00:00:Z","depth":"2","parameterNumber":2,"parameterNumberName":"U-component_of_CURRENTS"},"data":[0,0,0,0,0,0,0,0,0,0,0,0,0,0,0,0,0,0,0,0,0,0,0,0,0,0,0,0,0,0,0,0,0,0,0,0,0,0,0,0,0,0,0,0,0,0,0,0,0,0,0,0,0,0,0,0,0,0,0.3477,0.3477,0,0.3495,0.3495,0.3495,0.3477,0.3476,0.3476,0.3476,0.3453,0.3453,0.3453,0,0,0,0,0,0,0,0,0,0,0,0,0,0.3428,0.3429,0.3477,0.3477,0.3478,0.3495,0.3495,0.3495,0.3477,0.3476,0.3476,0.3476,0.3454,0.3453,0.3453,0,0,0,0,0,0,0,0,0,0,0,0,0,0.3445,0.3429,0.3477,0.3474,0.3474,0.3495,0.3495,0.3495,0.3477,0.3476,0.3476,0.3475,0.3454,0.3453,0.3453,0.3463,0,0,0.3452,0.3452,0,0,0,0,0,0,0,0,0.3444,0.3446,0.3473,0.3474,0.3474,0.3486,0.347,0.3483,0.3477,0.3472,0.3476,0.3475,0.3463,0.3462,0.3463,0.3462,0.3461,0.3452,0.3452,0.3452,0.3451,0,0,0,0,0,0,0,0.3443,0.3445,0.3481,0.3474,0.3475,0.3472,0.3474,0.3472,0.3467,0.3472,0.3472,0.348,0.3463,0.3463,0.3462,0.346,0.3452,0.3452,0.3451,0.3451,0.3513,0.3514,0,0,0,0,0,0,0.3448,0.3445,0.348,0.3481,0.3461,0.3474,0.3475,0.348,0.3468,0.3467,0.348,0.3479,0.3464,0.3462,0.3461,0.3507,0.3452,0.3451,0.3451,0.3511,0.3513,0.3515,0,0,0,0,0,0,0.3447,0.3451,0.3479,0.3466,0.347,0.3476,0.3481,0.3481,0.3491,0.3475,0.3473,0.3492,0.3463,0.3461,0.3476,0.3504,0.3451,0.3451,0.3509,0.3512,0.3514,0.3576,0,0,0,0,0,0,0.3446,0.3451,0.3461,0.3467,0.3471,0.3502,0.3482,0.3482,0.3497,0.3496,0.3484,0.3481,0.3463,0.3477,0.3475,0.3503,0.3451,0.3506,0.351,0.3513,0.3572,0.3581,0.3588,0,0,0,0,0,0.3444,0.3456,0.3461,0.3466,0.3483,0.3504,0.3506,0.3505,0.3499,0.351,0.3505,0.3482,0.3498,0.3478,0.3476,0.3504,0.3505,0.3509,0.3513,0.3568,0.3579,0.3588,0,0,0,0,0,0,0.3437,0.3456,0.3461,0.3478,0.3497,0.3502,0.3513,0.3516,0.3522,0.3521,0.35,0.3498,0.3526,0.3509,0.3488,0.3535,0.35,0.3504,0.3542,0.3552,0.3561,0.3589,0.345,0,0,0,0,0,0.3443,0.3458,0.3477,0.3493,0.3503,0.3512,0.3522,0.3527,0.3533,0.3535,0.3528,0.3528,0.3542,0.3541,0.3548,0.3566,0.3576,0.3586,0.3595,0.3602,0.3626,0.3663,0.3676,0.3529,0.3529,0.3528,0,0,0.3443,0.3459,0.3465,0.3493,0.3504,0.3528,0.3516,0.3539,0.3566,0.3532,0.3559,0.3559,0.3557,0.3583,0.3594,0.357,0.3651,0.3607,0.3613,0.3634,0.3668,0.3683,0.3695,0.3531,0.3531,0.353,0,0,0.3451,0.3467,0.3482,0.3505,0.3536,0.3547,0.356,0.3577,0.3591,0.3617,0.3612,0.3635,0.3633,0.365,0.3655,0.3716,0.37,0.3712,0.3767,0.3802,0.3814,0.3825,0.3861,0.3875,0.3707,0.3708,0.3708,0,0.3455,0.3476,0.3491,0.3518,0.3542,0.3559,0.3587,0.3611,0.3634,0.3656,0.3633,0.3677,0.3671,0.3726,0.375,0.3736,0.3751,0.3724,0.3813,0.3824,0.3834,0.3868,0.3882,0.3711,0.3711,0.371,0.371,0,0.3476,0.35,0.3513,0.3554,0.3582,0.361,0.3649,0.3682,0.3695,0.3714,0.3769,0.377,0.3797,0.3801,0.3792,0.3871,0.3857,0.3824,0.3785,0.3853,0.3884,0.3898,0.3716,0.3715,0.3714,0.3713,0,0,0.3462,0.3517,0.3521,0.3544,0.3606,0.3625,0.369,0.3747,0.3788,0.3814,0.3867,0.3904,0.391,0.3921,0.3919,0.3951,0.4035,0.3924,0.3924,0.3957,0.412,0.4109,0.4123,0.4011,0.4014,0.4016,0.4113,0,0.3475,0.3519,0.3553,0.3601,0.3625,0.3679,0.3733,0.3792,0.3834,0.3889,0.3925,0.3967,0.3955,0.3969,0.4009,0.4037,0.4075,0.4013,0.4053,0.4055,0.4035,0.414,0.3783,0.384,0.4126,0.4129,0.413,0,0.3481,0.3511,0.3557,0.3621,0.3638,0.3678,0.3768,0.3822,0.3918,0.3947,0.4012,0.404,0.4128,0.4082,0.4184,0.4144,0.4151,0.4157,0.4159,0.4142,0.4071,0.3819,0.3854,0.4153,0.4151,0.415,0.4148,0,0.3446,0.351,0.3544,0.3569,0.3649,0.369,0.3741,0.3837,0.3902,0.3996,0.4057,0.4132,0.4199,0.4225,0.4274,0.423,0.437,0.4296,0.4294,0.4292,0.3997,0.3966,0.4362,0.4362,0.4361,0.4361,0.4361,0,0.3437,0.3462,0.3529,0.3548,0.3597,0.3667,0.3736,0.3803,0.392,0.3999,0.409,0.4176,0.4242,0.4333,0.4324,0.4386,0.4415,0.4347,0.4333,0.4011,0.3981,0.4249,0.4235,0.4365,0.4364,0.4363,0.4363,0,0.339,0.3434,0.3474,0.3554,0.358,0.3617,0.3731,0.378,0.3912,0.403,0.4073,0.4252,0.437,0.4436,0.4499,0.4475,0.4498,0.4497,0.4131,0.4075,0.4378,0.4366,0.4506,0.4507,0.4508,0.4508,0.4509,0,0.3368,0.3384,0.346,0.3474,0.3511,0.3573,0.3613,0.3746,0.3817,0.4063,0.4121,0.4317,0.4418,0.4559,0.4512,0.4519,0.4561,0.4206,0.4065,0.443,0.4401,0.4388,0.4375,0.3684,0.3678,0.3673,0.3668,0,0.3324,0.3354,0.3381,0.3415,0.3451,0.3491,0.3575,0.3642,0.3811,0.3944,0.4127,0.4244,0.4402,0.4277,0.4333,0.427,0.4177,0.4108,0.4573,0.373,0.367,0.3637,0.3648,0.3622,0.3627,0.363,0.3633,0.3635,0.3282,0.3283,0.3314,0.3336,0.3367,0.3396,0.3396,0.3497,0.3611,0.3739,0.3963,0.4,0.4054,0.397,0.3851,0.3747,0.4031,0.3816,0.3824,0.384,0.3755,0.3702,0.3645,0.3649,0.3653,0.3656,0.3659,0,0.3198,0.3211,0.3229,0.3235,0.3203,0.3277,0.3342,0.3291,0.3341,0.3494,0.3595,0.3361,0.3331,0.3364,0.3154,0.3185,0.306,0.304,0.2824,0.2877,0.2922,0.278,0.2416,0.2412,0.2408,0.2404,0,0,0.3151,0.3118,0.3122,0.3049,0.3059,0.2974,0.2979,0.2936,0.2978,0.2944,0.2936,0.3175,0.3316,0.2825,0.2774,0.2559,0.268,0.2453,0.3464,0.3266,0.3305,0.3406,0.3256,0,0,0,0,0]},{"header":{"parameterUnit":"m.s-1","parameterCategory":2,"la1":30.2991,"la2":30.254,"lo1":-89.0895,"lo2":-89.0444,"dx":0.0017,"dy":0.0017,"nx":28,"ny":28,"refTime":"2022-11-15T15:00:00:Z","depth":"2","parameterNumber":3,"parameterNumberName":"V-component_of_CURRENTS"},"data":[0,0,0,0,0,0,0,0,0,0,0,0,0,0,0,0,0,0,0,0,0,0,0,0,0,0,0,0,0,0,0,0,0,0,0,0,0,0,0,0,0,0,0,0,0,0,0,0,0,0,0,0,0,0,0,0,0,0,0.0185,0.0185,0,0.0127,0.0126,0.0125,0.008,0.0079,0.0079,0.0079,-0.0012,-0.0015,-0.0017,0,0,0,0,0,0,0,0,0,0,0,0,0,0.0181,0.0182,0.0186,0.0185,0.0184,0.0127,0.0126,0.0125,0.008,0.0079,0.0079,0.0079,-0.0012,-0.0014,-0.0017,0,0,0,0,0,0,0,0,0,0,0,0,0,0.0158,0.0182,0.0186,0.0156,0.0153,0.0127,0.0126,0.0125,0.008,0.0079,0.0079,0.0078,-0.0011,-0.0014,-0.0017,-0.0028,0,0,-0.0027,-0.0028,0,0,0,0,0,0,0,0,0.0159,0.0158,0.0161,0.0158,0.0154,0.0111,0.0091,0.0073,0.008,0.0106,0.0079,0.0078,0.0027,0.0021,0.0009,-0.0032,-0.0036,-0.0027,-0.0029,-0.0031,-0.0032,0,0,0,0,0,0,0,0.0161,0.0159,0.0161,0.016,0.0156,0.0119,0.0116,0.0087,0.0068,0.0104,0.0101,0.0096,0.0025,0.0012,0.0007,-0.0038,-0.0027,-0.003,-0.0032,-0.0033,-0.0089,-0.0089,0,0,0,0,0,0,0.0176,0.0162,0.0163,0.0159,0.0157,0.012,0.0116,0.0124,0.0069,0.0061,0.0097,0.0095,0.0018,0.0011,0.0003,0.0003,-0.0031,-0.0034,-0.0035,-0.009,-0.0089,-0.0089,0,0,0,0,0,0,0.0176,0.0177,0.0165,0.0159,0.0155,0.0121,0.013,0.0124,0.0114,0.0065,0.0055,0.0095,0.0018,0.0008,-0.0011,-0.0002,-0.0035,-0.0038,-0.009,-0.0089,-0.0089,-0.0009,0,0,0,0,0,0,0.0176,0.0178,0.0187,0.0161,0.0156,0.0163,0.0131,0.0123,0.0113,0.0109,0.006,0.0051,0.0016,-0.0006,-0.0014,-0.0007,-0.0041,-0.0091,-0.009,-0.0089,-0.0012,-0.0005,0.0,0,0,0,0,0,0.0177,0.0199,0.0188,0.0187,0.0171,0.0164,0.0158,0.013,0.0113,0.0118,0.0085,0.0052,-0.0007,-0.0008,-0.0018,-0.0011,-0.0091,-0.009,-0.0089,-0.0014,-0.0006,0.0,0,0,0,0,0,0,0.0201,0.0196,0.0183,0.0202,0.0187,0.0157,0.0157,0.0137,0.0114,0.011,0.0061,0.005,0.0034,0.0002,0.0002,-0.0025,-0.0056,-0.0056,0.0004,0.0011,0.0018,0.0042,-0.0043,0,0,0,0,0,0.0212,0.0227,0.021,0.0223,0.022,0.0188,0.018,0.0165,0.0141,0.013,0.0095,0.0058,0.003,0.0015,-0.0016,-0.0028,-0.0067,-0.0031,-0.0025,-0.002,-0.0007,-0.0061,-0.0058,-0.0085,-0.0085,-0.0085,0,0,0.0223,0.0222,0.0229,0.0228,0.0212,0.0223,0.0183,0.0181,0.019,0.0124,0.0121,0.0078,0.0032,0.0018,0.0008,-0.0006,-0.0032,-0.0018,-0.0013,-0.0003,-0.0059,-0.0057,-0.0054,-0.0085,-0.0085,-0.0085,0,0,0.026,0.0254,0.0281,0.0275,0.0265,0.025,0.0255,0.023,0.022,0.0209,0.0165,0.0134,0.0089,0.006,0.0039,0.006,0.0001,0.0045,0.0097,0.0044,0.0046,0.0047,0.0005,0.0001,0.0049,0.0049,0.0049,0,0.0272,0.0307,0.0285,0.0307,0.0313,0.027,0.03,0.0283,0.0254,0.0251,0.0221,0.0155,0.0111,0.0098,0.0102,0.0075,0.0037,0.0075,0.0053,0.0053,0.0053,0.0009,0.0004,0.0053,0.0053,0.0052,0.0052,0,0.0328,0.0353,0.0368,0.0385,0.0387,0.0404,0.0385,0.0385,0.036,0.0332,0.0309,0.0244,0.0207,0.0182,0.0147,0.013,0.01,0.0066,0.0038,0.0061,0.0012,0.0006,0.0059,0.0057,0.0056,0.0055,0,0,0.0369,0.0403,0.0409,0.0439,0.0434,0.045,0.0467,0.0473,0.049,0.0432,0.0443,0.0372,0.0322,0.0296,0.024,0.0192,0.015,0.0135,0.0131,0.01,0.0039,0.0009,-0.0001,0.0108,0.0108,0.0107,0.0006,0,0.0422,0.0492,0.049,0.0555,0.0592,0.0569,0.0598,0.0591,0.0559,0.0554,0.0474,0.045,0.037,0.0352,0.0292,0.0191,0.0137,0.0181,0.0015,0.0011,-0.0013,-0.0008,0.004,-0.0047,-0.0,-0.0001,-0.0002,0,0.0485,0.0528,0.0607,0.0666,0.0681,0.0711,0.0751,0.0764,0.0733,0.0704,0.0648,0.0578,0.0509,0.0432,0.0268,0.0298,0.018,0.009,0.0083,0.0026,-0.003,-0.0065,-0.0061,-0.0013,-0.0012,-0.0012,-0.0011,0,0.0548,0.0613,0.0688,0.0703,0.0756,0.0797,0.082,0.0813,0.0844,0.0791,0.0802,0.0681,0.0646,0.0479,0.0289,0.0275,0.0103,0.0056,-0.0082,-0.0085,-0.0091,-0.0093,-0.0064,-0.0064,-0.0064,-0.0063,-0.0063,0,0.0614,0.0673,0.0729,0.077,0.0873,0.0873,0.0961,0.0955,0.0965,0.102,0.0885,0.0902,0.0655,0.0529,0.0331,0.0114,0.0128,-0.0067,-0.0113,-0.0062,-0.006,-0.0069,-0.0068,-0.0067,-0.0066,-0.0066,-0.0065,0,0.0674,0.0705,0.0801,0.0877,0.091,0.0981,0.1071,0.1125,0.1115,0.1185,0.118,0.1067,0.0898,0.0644,0.0375,0.0188,-0.0033,-0.0118,-0.0037,-0.0071,-0.0198,-0.0192,-0.0282,-0.0283,-0.0285,-0.0286,-0.0287,0,0.071,0.0769,0.0885,0.0951,0.0993,0.1094,0.1172,0.1197,0.1266,0.1303,0.1357,0.1216,0.1158,0.0745,0.0366,0.0009,-0.0041,-0.0187,-0.0214,-0.0185,-0.0221,-0.0212,-0.0204,-0.0191,-0.0191,-0.0191,-0.0191,0,0.0785,0.0829,0.0909,0.1051,0.1149,0.1269,0.1384,0.1471,0.1525,0.1592,0.1657,0.1612,0.1225,0.086,0.0349,0.0116,-0.0131,-0.0203,-0.0195,-0.0141,-0.0107,-0.014,-0.0133,-0.0193,-0.0193,-0.0193,-0.0193,-0.0193,0.0842,0.0913,0.1025,0.1161,0.128,0.1441,0.1566,0.1685,0.1832,0.1946,0.1884,0.1819,0.1396,0.0748,0.0306,-0.016,-0.0133,-0.0288,-0.0284,-0.0281,-0.0249,-0.0221,-0.0322,-0.0322,-0.0323,-0.0323,-0.0323,0,0.0913,0.0996,0.1125,0.1295,0.1439,0.1494,0.1709,0.1832,0.2026,0.2091,0.2132,0.1748,0.1324,0.0826,0.0135,-0.0266,-0.0282,-0.0389,-0.0325,-0.0319,-0.0315,-0.0284,-0.0367,-0.0369,-0.037,-0.0372,0,0,0.0952,0.1085,0.1156,0.1404,0.1528,0.1745,0.1886,0.2052,0.2155,0.223,0.2181,0.2062,0.1472,0.0961,0.041,0.0009,-0.0057,-0.0057,0.0029,0.0178,0.0187,-0.0201,-0.014,0,0,0,0,0]}],[{"header":{"parameterUnit":"m.s-1","parameterCategory":2,"la1":30.2991,"la2":30.254,"lo1":-89.0895,"lo2":-89.0444,"dx":0.0017,"dy":0.0017,"nx":28,"ny":28,"refTime":"2022-11-15T15:00:00:Z","depth":"4","parameterNumber":2,"parameterNumberName":"U-component_of_CURRENTS"},"data":[0,0,0,0,0,0,0,0,0,0,0,0,0,0,0,0,0,0,0,0,0,0,0,0,0,0,0,0,0,0,0,0,0,0,0,0,0,0,0,0,0,0,0,0,0,0,0,0,0,0,0,0,0,0,0,0,0,0,0.2175,0.2176,0,0.2255,0.2255,0.2256,0.2323,0.2324,0.2325,0.2326,0.2417,0.2419,0.242,0,0,0,0,0,0,0,0,0,0,0,0,0,0.2071,0.2073,0.2174,0.2176,0.2177,0.2255,0.2255,0.2256,0.2323,0.2324,0.2325,0.2326,0.2417,0.2419,0.242,0,0,0,0,0,0,0,0,0,0,0,0,0,0.2128,0.2073,0.2174,0.2221,0.2227,0.2254,0.2255,0.2257,0.2322,0.2324,0.2325,0.2327,0.2416,0.2418,0.2421,0.2406,0,0,0.2428,0.2429,0,0,0,0,0,0,0,0,0.2124,0.2131,0.2213,0.2218,0.2224,0.2283,0.2253,0.2308,0.2322,0.2283,0.2326,0.2327,0.2374,0.238,0.2388,0.2411,0.2415,0.2428,0.2429,0.243,0.2431,0,0,0,0,0,0,0,0.212,0.2128,0.2203,0.2214,0.2221,0.2236,0.2246,0.2263,0.2318,0.2287,0.2292,0.2305,0.2377,0.2385,0.239,0.2416,0.2428,0.243,0.2431,0.2432,0.2582,0.2584,0,0,0,0,0,0,0.2115,0.2124,0.2201,0.2206,0.218,0.2237,0.2247,0.226,0.2317,0.2328,0.2304,0.2308,0.2381,0.2388,0.2394,0.2513,0.243,0.2433,0.2434,0.2579,0.2582,0.2585,0,0,0,0,0,0,0.2112,0.2121,0.2198,0.2169,0.218,0.2238,0.2251,0.2261,0.232,0.2331,0.2342,0.2359,0.2382,0.2391,0.2459,0.2512,0.2434,0.2436,0.2576,0.258,0.2584,0.2666,0,0,0,0,0,0,0.2109,0.2119,0.215,0.2169,0.2182,0.2246,0.225,0.2262,0.2324,0.2331,0.238,0.2387,0.2384,0.2456,0.2461,0.2514,0.2438,0.2573,0.2578,0.2582,0.266,0.2673,0.2683,0,0,0,0,0,0.2105,0.213,0.2151,0.2162,0.2215,0.2248,0.2257,0.2299,0.2326,0.2357,0.2398,0.2389,0.2491,0.246,0.2466,0.252,0.257,0.2576,0.2582,0.2655,0.267,0.2683,0,0,0,0,0,0,0.2103,0.214,0.2164,0.2202,0.224,0.2261,0.2301,0.2327,0.2383,0.2408,0.2416,0.2427,0.2509,0.2504,0.2469,0.2579,0.2531,0.2538,0.2585,0.2599,0.261,0.2626,0.244,0,0,0,0,0,0.2116,0.2151,0.2183,0.2221,0.2244,0.2283,0.2313,0.2343,0.2382,0.2411,0.2447,0.2488,0.2528,0.2556,0.2586,0.2641,0.2642,0.2683,0.2694,0.2703,0.2723,0.2762,0.2778,0.2604,0.2604,0.2604,0,0,0.2127,0.2154,0.2177,0.2226,0.2261,0.23,0.2306,0.2365,0.2415,0.241,0.2506,0.2534,0.2553,0.2621,0.2657,0.2629,0.2756,0.2711,0.2719,0.2733,0.277,0.2786,0.2801,0.2608,0.2607,0.2607,0,0,0.2148,0.2193,0.2225,0.2262,0.2326,0.2347,0.2376,0.2429,0.2479,0.2553,0.2573,0.2638,0.2692,0.2721,0.2738,0.283,0.2817,0.2847,0.2916,0.2954,0.2968,0.298,0.3007,0.3021,0.2849,0.2849,0.2849,0,0.2167,0.2207,0.2242,0.2282,0.2325,0.2374,0.242,0.247,0.2546,0.2592,0.26,0.2716,0.2738,0.2818,0.286,0.2857,0.2874,0.2858,0.2967,0.298,0.2991,0.3015,0.303,0.2854,0.2853,0.2853,0.2852,0,0.2195,0.225,0.2276,0.2344,0.2392,0.2445,0.2508,0.2579,0.2641,0.2684,0.2796,0.2832,0.29,0.292,0.2923,0.3026,0.301,0.2977,0.2928,0.3014,0.3034,0.3048,0.2861,0.2859,0.2858,0.2856,0,0,0.2175,0.2277,0.2292,0.2338,0.2436,0.2469,0.2571,0.2658,0.2731,0.2815,0.2905,0.2992,0.3027,0.3051,0.307,0.3111,0.3211,0.3095,0.3095,0.3114,0.3302,0.3098,0.3093,0.32,0.3203,0.3205,0.3283,0,0.2195,0.2271,0.2326,0.2416,0.2459,0.2548,0.2629,0.2723,0.2807,0.2906,0.2975,0.3065,0.3071,0.3121,0.3171,0.321,0.3252,0.3193,0.3223,0.3224,0.3026,0.3103,0.3214,0.3293,0.3297,0.3299,0.33,0,0.2196,0.2251,0.2339,0.2452,0.2482,0.2556,0.2697,0.2779,0.292,0.2987,0.3093,0.3148,0.3266,0.3236,0.3353,0.332,0.3334,0.3342,0.3344,0.3135,0.3045,0.3191,0.3325,0.3323,0.3321,0.3319,0.3318,0,0.2137,0.2256,0.233,0.2372,0.2506,0.2587,0.2674,0.2816,0.2904,0.3059,0.3139,0.3252,0.3346,0.3385,0.3439,0.3411,0.3534,0.3478,0.3303,0.3289,0.3411,0.3396,0.3546,0.3545,0.3545,0.3545,0.3545,0,0.2108,0.2172,0.2321,0.236,0.2462,0.2574,0.2699,0.2801,0.2962,0.3054,0.3194,0.3274,0.3395,0.3478,0.3481,0.3443,0.3571,0.3334,0.3299,0.3444,0.3433,0.342,0.3404,0.3548,0.3547,0.3547,0.3546,0,0.2024,0.2123,0.2216,0.2378,0.2438,0.2518,0.2712,0.2784,0.2964,0.3095,0.3158,0.3344,0.3435,0.3519,0.3589,0.3487,0.3465,0.3414,0.359,0.3561,0.3182,0.3171,0.3211,0.3205,0.3199,0.3195,0.3191,0,0.1982,0.2025,0.221,0.2268,0.2356,0.2491,0.257,0.2762,0.2842,0.3097,0.314,0.3323,0.3408,0.3356,0.3447,0.3429,0.3384,0.3348,0.3242,0.3188,0.3152,0.3148,0.3144,0.3182,0.3181,0.3179,0.3178,0,0.1899,0.1992,0.2064,0.2183,0.2288,0.2377,0.2518,0.2563,0.277,0.2965,0.3036,0.3082,0.3184,0.3217,0.3244,0.3218,0.3351,0.3289,0.3299,0.3199,0.3153,0.3122,0.3124,0.3159,0.3162,0.3163,0.3164,0,0.1844,0.1871,0.198,0.2066,0.2182,0.2225,0.2318,0.2406,0.2511,0.2789,0.2799,0.2979,0.3148,0.311,0.3126,0.3098,0.3033,0.2906,0.2934,0.2957,0.2834,0.2737,0.2598,0,0,0,0,0,0.1766,0.1775,0.1847,0.1921,0.2026,0.2094,0.2256,0.2352,0.2558,0.2535,0.2661,0.2727,0.2767,0.2862,0.2779,0.301,0.3047,0.2898,0.2915,0.3054,0.3076,0.2953,0,0,0,0,0,0,0.1709,0.1769,0.179,0.1778,0.18,0.1891,0.1986,0.2131,0.2132,0.2353,0.2391,0.2552,0.2635,0.278,0.2722,0.2748,0.2699,0.3012,0.3005,0.3041,0.3061,0.3079,0.2961,0,0,0,0,0]},{"header":{"parameterUnit":"m.s-1","parameterCategory":2,"la1":30.2991,"la2":30.254,"lo1":-89.0895,"lo2":-89.0444,"dx":0.0017,"dy":0.0017,"nx":28,"ny":28,"refTime":"2022-11-15T15:00:00:Z","depth":"4","parameterNumber":3,"parameterNumberName":"V-component_of_CURRENTS"},"data":[0,0,0,0,0,0,0,0,0,0,0,0,0,0,0,0,0,0,0,0,0,0,0,0,0,0,0,0,0,0,0,0,0,0,0,0,0,0,0,0,0,0,0,0,0,0,0,0,0,0,0,0,0,0,0,0,0,0,0.0292,0.0292,0,0.0255,0.0255,0.0255,0.023,0.023,0.0229,0.0229,0.0168,0.0167,0.0166,0,0,0,0,0,0,0,0,0,0,0,0,0,0.0284,0.0285,0.0292,0.0292,0.0291,0.0255,0.0255,0.0254,0.023,0.023,0.0229,0.0229,0.0169,0.0167,0.0165,0,0,0,0,0,0,0,0,0,0,0,0,0,0.0271,0.0285,0.0292,0.0275,0.0273,0.0256,0.0255,0.0254,0.023,0.023,0.0229,0.0229,0.017,0.0167,0.0165,0.0156,0,0,0.0158,0.0157,0,0,0,0,0,0,0,0,0.0272,0.0272,0.0278,0.0276,0.0274,0.0247,0.023,0.022,0.023,0.0246,0.0229,0.0229,0.0193,0.0189,0.0182,0.0153,0.015,0.0158,0.0157,0.0156,0.0155,0,0,0,0,0,0,0,0.0273,0.0273,0.0277,0.0278,0.0275,0.025,0.0248,0.0228,0.022,0.0244,0.0243,0.0239,0.0192,0.0184,0.0181,0.0149,0.0158,0.0156,0.0155,0.0154,0.0111,0.0111,0,0,0,0,0,0,0.0282,0.0274,0.0278,0.0276,0.0273,0.025,0.0248,0.0256,0.0221,0.0216,0.0239,0.0238,0.0188,0.0183,0.0178,0.0179,0.0156,0.0154,0.0153,0.011,0.0111,0.0111,0,0,0,0,0,0,0.0282,0.0283,0.028,0.0274,0.0272,0.0251,0.0259,0.0255,0.0252,0.0218,0.0212,0.0241,0.0188,0.0181,0.0169,0.0176,0.0153,0.0151,0.011,0.0111,0.0111,0.0171,0,0,0,0,0,0,0.0282,0.0284,0.0293,0.0275,0.0272,0.0279,0.0259,0.0255,0.025,0.0249,0.0217,0.0211,0.0187,0.0173,0.0167,0.0172,0.0149,0.011,0.011,0.0111,0.0169,0.0173,0.0177,0,0,0,0,0,0.0282,0.03,0.0294,0.0294,0.0286,0.028,0.0277,0.026,0.0251,0.0256,0.0235,0.0212,0.0171,0.0172,0.0165,0.0169,0.011,0.011,0.0111,0.0167,0.0172,0.0177,0,0,0,0,0,0,0.03,0.0298,0.0291,0.0307,0.0297,0.0276,0.0279,0.0266,0.0253,0.0252,0.0218,0.0211,0.0201,0.0177,0.0179,0.0157,0.0135,0.0134,0.018,0.0185,0.0189,0.0209,0.0147,0,0,0,0,0,0.0309,0.0322,0.031,0.0322,0.032,0.03,0.0296,0.0286,0.0271,0.0265,0.0242,0.0216,0.0196,0.0186,0.0164,0.0155,0.012,0.0151,0.0155,0.0159,0.017,0.012,0.0121,0.0112,0.0112,0.0112,0,0,0.0318,0.0318,0.0325,0.0326,0.0317,0.0326,0.0298,0.0299,0.0306,0.026,0.0263,0.0232,0.0197,0.0187,0.018,0.0169,0.0143,0.016,0.0163,0.0172,0.012,0.0121,0.0122,0.0113,0.0112,0.0112,0,0,0.0345,0.0345,0.0365,0.0362,0.0356,0.0347,0.0351,0.0335,0.033,0.0325,0.0294,0.027,0.024,0.0217,0.0201,0.0214,0.0167,0.0203,0.0241,0.0193,0.0193,0.0193,0.0149,0.0144,0.0205,0.0205,0.0205,0,0.0354,0.0382,0.0368,0.0384,0.039,0.0362,0.0385,0.0374,0.0356,0.0354,0.0335,0.0287,0.0254,0.0243,0.0246,0.0225,0.019,0.0227,0.0199,0.0198,0.0197,0.0151,0.0146,0.0208,0.0208,0.0208,0.0207,0,0.0392,0.0415,0.0426,0.0442,0.0445,0.046,0.0447,0.045,0.0435,0.0415,0.0399,0.0351,0.0324,0.0304,0.0279,0.0259,0.0235,0.021,0.0189,0.0201,0.0153,0.0146,0.0212,0.0211,0.0211,0.021,0,0,0.042,0.045,0.0456,0.0481,0.0481,0.0494,0.0509,0.0515,0.0527,0.0488,0.0497,0.0444,0.0408,0.0388,0.0347,0.0302,0.0258,0.0259,0.0255,0.0222,0.0151,0.0131,0.0121,0.0225,0.0225,0.0224,0.012,0,0.0457,0.051,0.0512,0.0565,0.0593,0.0582,0.0606,0.0602,0.058,0.0577,0.0518,0.0502,0.0443,0.0432,0.0378,0.0294,0.0243,0.0289,0.0139,0.0135,0.012,0.0114,0.0221,0.0114,0.0112,0.0111,0.011,0,0.0498,0.0532,0.0595,0.0647,0.066,0.0688,0.0723,0.0735,0.0712,0.0692,0.0651,0.0598,0.054,0.0485,0.034,0.0371,0.027,0.0193,0.0187,0.0146,0.0102,0.0097,0.0097,0.0098,0.0099,0.01,0.0101,0,0.0537,0.0593,0.0654,0.0668,0.0715,0.0753,0.0778,0.0774,0.0799,0.0763,0.077,0.0673,0.0645,0.0505,0.0343,0.0339,0.0175,0.0146,0.0031,0.0028,0.0051,0.0052,0.0037,0.0037,0.0037,0.0037,0.0038,0,0.0577,0.0627,0.0685,0.0717,0.0804,0.0812,0.0886,0.0887,0.0899,0.0931,0.0838,0.0836,0.0647,0.0532,0.0369,0.0182,0.0188,0.0039,-0.0,0.0078,0.0083,0.0045,0.0048,0.0033,0.0034,0.0035,0.0036,0,0.0608,0.0642,0.0721,0.0794,0.0828,0.0889,0.0976,0.1015,0.1017,0.1059,0.1058,0.0959,0.0801,0.0599,0.0368,0.023,0.0042,-0.003,0.0077,0.0045,-0.008,-0.0073,-0.0165,-0.0166,-0.0167,-0.0169,-0.017,0,0.0626,0.0673,0.0782,0.0839,0.0882,0.0974,0.104,0.1074,0.112,0.1132,0.116,0.1032,0.0936,0.0609,0.0377,0.0058,0.0008,-0.0092,-0.0096,-0.0071,-0.0101,-0.0092,-0.0084,-0.0172,-0.0172,-0.0172,-0.0173,0,0.0663,0.0709,0.0774,0.0897,0.0985,0.1085,0.1181,0.1226,0.1267,0.1273,0.124,0.1069,0.089,0.0617,0.0366,0.0137,-0.0028,-0.0107,-0.0106,-0.011,-0.0081,-0.0107,-0.0097,-0.0177,-0.0177,-0.0176,-0.0176,0,0.0693,0.0745,0.0839,0.0946,0.1062,0.1168,0.1214,0.1275,0.1323,0.1332,0.1315,0.1117,0.1001,0.0657,0.0429,0.0196,0.013,0.0051,0.0042,0.0045,0.0127,0.0196,0.0154,0,0,0,0,0,0.0716,0.0777,0.0878,0.0999,0.1114,0.1189,0.13,0.1334,0.1379,0.1364,0.1343,0.1173,0.0835,0.0696,0.0459,0.0383,0.0078,0.0095,-0.0021,-0.0203,-0.0197,-0.0139,0,0,0,0,0,0,0.073,0.0825,0.0877,0.1028,0.1117,0.1251,0.1327,0.1354,0.1352,0.1356,0.1184,0.1106,0.0779,0.0971,0.0453,0.0383,0.0274,-0.0057,-0.0063,-0.0206,-0.0201,-0.0197,-0.0135,0,0,0,0,0]}]]